When you browse on this site, cookies collect data to enhance your experience and personalize the content and advertising you see.
Visit our Privacy Policy to learn more. By continuing to use the site, you agree to this use of cookies and data.
  • In Slovakia
  • List of Countries
  • For 7 days
  • Water Temperature
  • Satellite Maps
  • Weather Map
  • Weather Widgets
  • user-avatar
    Login

    Hourly Weather Yerevan

    Today, 20 January, Sunday

    Time Temperature Precipitation Wind Pressure Humidity
    00:00 -2°C° 0 mm 2 mps 693 mmHg 36%
    01:00 -3°C° 0 mm 2 mps 693 mmHg 35%
    02:00 -3°C° 0 mm 2 mps 693 mmHg 35%
    03:00 0°C° 0 mm 1 mps 693 mmHg 34%
    04:00 -1°C° 0 mm 1 mps 693 mmHg 34%
    05:00 -3°C° 0 mm 2 mps 693 mmHg 33%
    06:00 -3°C° 0 mm 2 mps 693 mmHg 33%
    07:00 0°C° 0 mm 1 mps 694 mmHg 32%
    08:00 +1°C° 0 mm 1 mps 694 mmHg 32%
    09:00 +2°C° 0 mm 1 mps 694 mmHg 31%
    10:00 +3°C° 0 mm 1 mps 694 mmHg 29%
    11:00 +4°C° 0 mm 1 mps 693 mmHg 27%
    12:00 +5°C° 0 mm 1 mps 693 mmHg 25%
    13:00 +5°C° 0 mm 1 mps 693 mmHg 26%
    14:00 +5°C° 0 mm 1 mps 693 mmHg 26%
    15:00 +5°C° 0 mm 1 mps 693 mmHg 26%
    16:00 +4°C° 0 mm 1 mps 693 mmHg 28%
    17:00 +3°C° 0 mm 1 mps 693 mmHg 30%
    18:00 +2°C° 0 mm 1 mps 694 mmHg 32%
    19:00 +1°C° 0 mm 2 mps 694 mmHg 33%
    20:00 -1°C° 0 mm 2 mps 694 mmHg 33%
    21:00 -1°C° 0 mm 2 mps 694 mmHg 34%
    22:00 -2°C° 0 mm 2 mps 694 mmHg 35%
    23:00 0°C° 0 mm 1 mps 695 mmHg 35%

    Tomorrow, 21 January, Monday

    Time Temperature Precipitation Wind Pressure Humidity
    00:00 0°C° 0 mm 1 mps 695 mmHg 36%
    01:00 -1°C° 0 mm 1 mps 695 mmHg 36%
    02:00 -1°C° 0 mm 1 mps 695 mmHg 36%
    03:00 -1°C° 0 mm 1 mps 695 mmHg 37%
    04:00 -1°C° 0 mm 1 mps 695 mmHg 37%
    05:00 -1°C° 0 mm 1 mps 695 mmHg 37%
    06:00 -1°C° 0 mm 1 mps 694 mmHg 37%
    07:00 -1°C° 0 mm 1 mps 694 mmHg 36%
    08:00 0°C° 0 mm 1 mps 695 mmHg 35%
    09:00 +1°C° 0 mm 1 mps 695 mmHg 34%
    10:00 +2°C° 0 mm 1 mps 694 mmHg 32%
    11:00 +3°C° 0 mm 1 mps 694 mmHg 30%
    12:00 +3°C° 0 mm 2 mps 693 mmHg 28%
    13:00 +3°C° 0 mm 2 mps 693 mmHg 28%
    14:00 +4°C° 0 mm 2 mps 692 mmHg 28%
    15:00 +4°C° 0 mm 2 mps 692 mmHg 28%
    16:00 +3°C° 0 mm 2 mps 692 mmHg 30%
    17:00 +2°C° 0 mm 2 mps 692 mmHg 32%
    18:00 +1°C° 0 mm 2 mps 692 mmHg 34%
    19:00 -1°C° 0 mm 2 mps 692 mmHg 36%
    20:00 -1°C° 0 mm 2 mps 692 mmHg 37%
    21:00 0°C° 0 mm 1 mps 692 mmHg 38%
    22:00 0°C° 0 mm 1 mps 692 mmHg 39%
    23:00 0°C° 0 mm 1 mps 692 mmHg 39%

    Day after tomorrow, 22 January, Tuesday

    Time Temperature Precipitation Wind Pressure Humidity
    00:00 0°C° 0 mm 1 mps 692 mmHg 40%
    01:00 -1°C° 0 mm 1 mps 692 mmHg 40%
    02:00 -1°C° 0 mm 1 mps 692 mmHg 40%
    03:00 -1°C° 0 mm 1 mps 692 mmHg 41%
    04:00 -1°C° 0 mm 1 mps 691 mmHg 41%
    05:00 -1°C° 0 mm 1 mps 691 mmHg 41%
    06:00 -3°C° 0 mm 2 mps 691 mmHg 41%
    07:00 -1°C° 0 mm 1 mps 691 mmHg 40%
    08:00 0°C° 0 mm 1 mps 691 mmHg 38%
    09:00 +1°C° 0 mm 1 mps 691 mmHg 36%
    10:00 +2°C° 0 mm 1 mps 691 mmHg 35%
    11:00 +3°C° 0 mm 1 mps 690 mmHg 33%
    12:00 +4°C° 0 mm 1 mps 690 mmHg 31%
    13:00 +5°C° 0 mm 1 mps 690 mmHg 32%
    14:00 +5°C° 0 mm 1 mps 689 mmHg 32%
    15:00 +6°C° 0 mm 1 mps 689 mmHg 32%
    16:00 +5°C° 0 mm 1 mps 689 mmHg 35%
    17:00 +4°C° 0 mm 1 mps 690 mmHg 37%
    18:00 +3°C° 0 mm 1 mps 690 mmHg 40%
    19:00 +2°C° 0 mm 1 mps 690 mmHg 41%
    20:00 +2°C° 0 mm 1 mps 691 mmHg 43%
    21:00 +1°C° 0 mm 1 mps 691 mmHg 44%
    22:00 +1°C° 0 mm 1 mps 691 mmHg 46%
    23:00 +1°C° 0 mm 1 mps 691 mmHg 47%

    23 January, Wednesday

    Time Temperature Precipitation Wind Pressure Humidity
    00:00 0°C° 0 mm 1 mps 691 mmHg 48%
    01:00 0°C° 0 mm 1 mps 691 mmHg 49%
    02:00 0°C° 0 mm 1 mps 691 mmHg 50%
    03:00 0°C° 0 mm 1 mps 691 mmHg 50%
    04:00 -1°C° 0 mm 1 mps 691 mmHg 51%
    05:00 -1°C° 0 mm 1 mps 691 mmHg 52%
    06:00 -1°C° 0 mm 1 mps 691 mmHg 52%
    07:00 0°C° 0 mm 1 mps 692 mmHg 50%
    08:00 +1°C° 0 mm 1 mps 692 mmHg 48%
    09:00 +2°C° 0 mm 1 mps 693 mmHg 45%
    10:00 +3°C° 0 mm 1 mps 692 mmHg 43%
    11:00 +3°C° 0 mm 2 mps 692 mmHg 42%
    12:00 +4°C° 0 mm 2 mps 692 mmHg 40%
    13:00 +4°C° 0 mm 2 mps 692 mmHg 39%
    14:00 +4°C° 0 mm 2 mps 692 mmHg 39%
    15:00 +5°C° 0 mm 2 mps 691 mmHg 39%
    16:00 +4°C° 0 mm 2 mps 692 mmHg 41%
    17:00 +2°C° 0 mm 2 mps 692 mmHg 44%
    18:00 +1°C° 0 mm 2 mps 693 mmHg 46%
    19:00 +1°C° 0 mm 2 mps 693 mmHg 47%
    20:00 +1°C° 0 mm 2 mps 693 mmHg 48%
    21:00 -1°C° 0 mm 2 mps 694 mmHg 49%
    22:00 -1°C° 0 mm 2 mps 694 mmHg 50%
    23:00 +1°C° 0 mm 1 mps 694 mmHg 51%

    24 January, Thursday

    Time Temperature Precipitation Wind Pressure Humidity
    00:00 0°C° 0 mm 1 mps 694 mmHg 52%
    01:00 0°C° 0 mm 1 mps 694 mmHg 52%
    02:00 0°C° 0 mm 1 mps 694 mmHg 52%
    03:00 0°C° 0 mm 1 mps 694 mmHg 53%
    04:00 0°C° 0 mm 1 mps 694 mmHg 52%
    05:00 0°C° 0 mm 1 mps 694 mmHg 52%
    06:00 -1°C° 0 mm 1 mps 694 mmHg 52%
    07:00 0°C° 0 mm 1 mps 694 mmHg 49%
    08:00 +1°C° 0 mm 1 mps 694 mmHg 46%
    09:00 +2°C° 0 mm 1 mps 695 mmHg 44%
    10:00 +2°C° 0 mm 2 mps 694 mmHg 42%
    11:00 +3°C° 0 mm 2 mps 694 mmHg 40%
    12:00 +5°C° 0 mm 2 mps 693 mmHg 38%
    13:00 +5°C° 0 mm 2 mps 693 mmHg 38%
    14:00 +5°C° 0 mm 2 mps 693 mmHg 37%
    15:00 +5°C° 0 mm 3 mps 692 mmHg 37%
    16:00 +4°C° 0 mm 3 mps 693 mmHg 40%
    17:00 +3°C° 0 mm 3 mps 693 mmHg 43%
    18:00 +2°C° 0 mm 3 mps 693 mmHg 46%
    19:00 +1°C° 0 mm 3 mps 693 mmHg 48%
    20:00 +2°C° 0 mm 2 mps 693 mmHg 49%
    21:00 +2°C° 0 mm 2 mps 694 mmHg 51%
    22:00 +1°C° 0 mm 2 mps 694 mmHg 51%
    23:00 +1°C° 0 mm 2 mps 693 mmHg 51%

    25 January, Friday

    Time Temperature Precipitation Wind Pressure Humidity
    00:00 +1°C° 0 mm 2 mps 693 mmHg 52%
    01:00 +1°C° 0 mm 2 mps 693 mmHg 53%
    02:00 +1°C° 0 mm 2 mps 693 mmHg 53%
    03:00 +1°C° 0 mm 2 mps 693 mmHg 54%
    04:00 +1°C° 0 mm 2 mps 693 mmHg 56%
    05:00 +1°C° 0 mm 2 mps 692 mmHg 58%
    06:00 +1°C° 0 mm 2 mps 692 mmHg 59%
    07:00 +2°C° 0 mm 2 mps 692 mmHg 58%
    08:00 +3°C° 0 mm 2 mps 692 mmHg 56%
    09:00 +3°C° 0 mm 2 mps 692 mmHg 54%
    10:00 +4°C° 0 mm 3 mps 692 mmHg 51%
    11:00 +5°C° 0 mm 3 mps 691 mmHg 47%
    12:00 +7°C° 0 mm 3 mps 691 mmHg 43%
    13:00 +7°C° 0 mm 3 mps 691 mmHg 42%
    14:00 +8°C° 0 mm 3 mps 690 mmHg 41%
    15:00 +8°C° 0 mm 3 mps 690 mmHg 40%
    16:00 +7°C° 0 mm 3 mps 690 mmHg 42%
    17:00 +5°C° 0 mm 3 mps 690 mmHg 45%
    18:00 +4°C° 0 mm 3 mps 690 mmHg 48%
    19:00 +5°C° 0 mm 2 mps 690 mmHg 49%
    20:00 +4°C° 0 mm 2 mps 690 mmHg 50%
    21:00 +4°C° 0 mm 2 mps 690 mmHg 51%
    22:00 +3°C° 0 mm 2 mps 690 mmHg 51%
    23:00 +3°C° 0 mm 2 mps 689 mmHg 52%
    Show more